Regional Weather Roundup
Issued by NWS Wakefield, VA

Home | Current Version | Previous Version | Graphics & Text | Print | Product List | Glossary On
Versions: 1 2 3 4 5 6 7 8 9 10 11 12 13 14 15 16 17 18 19 20 21 22 23 24 25 26 27 28 29 30 31 32 33 34 35 36 37 38 39 40 41 42 43 44 45 46 47 48 49 50
000
ASUS41 KAKQ 201115
RWRAKQ

REGIONAL WEATHER ROUNDUP
NATIONAL WEATHER SERVICE WAKEFIELD VA
700 AM EDT SUN AUG 20 2017

Note: "fair" indicates few or no clouds below 12,000 feet with no
significant weather and/or obstructions to visibility. * = Denotes
station may not report precipitation (e.g., rain,snow,etc.),
thunder or fog.

VAZ042-051-052>054-056-201200-
NORTHERN VIRGINIA

CITY           SKY/WX    TMP DP  RH WIND       PRES   REMARKS
WASH NATIONAL  PTCLDY    71  62  73 N9        30.08R
DULLES         PTCLDY    68  63  84 NW5       30.09R
FORT BELVOIR   CLEAR     65  64  95 CALM      30.08R
QUANTICO       CLEAR     70  67  90 CALM      30.09R
FREDERICKSBRG* PTCLDY    67  67 100 CALM      30.08R
STAFFORD*      PTCLDY    62  62 100 CALM      30.12R
WARRENTON      FOG       63  60  91 CALM      30.09R VSB 1/4
CULPEPER*      PTCLDY    64  64 100 CALM      30.10R
MANASSAS*      PTCLDY    67  63  87 N6        30.09R
LEESBURG*      CLEAR     66  64  94 CALM      30.11R
WINCHESTER     CLEAR     61  59  94 CALM      30.11R
FRONT ROYAL*   CLOUDY    63  63 100 CALM      30.11R VSB<1/4
LURAY*         FOG       63  63 100 CALM      30.12R VSB<1/4
$$

VAZ048-049-060>072-079>083-201200-
CENTRAL AND SOUTH CENTRAL VIRGINIA

CITY           SKY/WX    TMP DP  RH WIND       PRES   REMARKS
RICHMOND       PTCLDY    71  70  96 N7        30.06R
CHESTERFIELD*  FAIR      69  68  96 NW3       30.06R
PETERSBURG*    CLEAR     67  67 100 CALM      30.06R
HANOVER        CLEAR     69  65  86 NW3       30.08R
TAPPAHANNOCK*  CLEAR    N/A N/A N/A CALM      30.07R
QUINTON*       FAIR      70  70 100 NW5       30.05R
CHARLOTTSVILLE CLEAR     67  66  97 CALM      30.10R
GORDONSVILLE*  SUNNY     64  64 100 CALM      30.09R
ORANGE*        CLEAR     63  63 100 CALM      30.10R
LOUISA*        CLEAR     61  61 100 CALM      30.09R FOG
BUMPASS*       FAIR      66  66 100 CALM      30.09R
FARMVILLE*     FOG       66  64  94 CALM      30.07R VSB 3/4
CREWE*         FAIR      67  63  87 N5        30.06R
FORT PICKETT*  FAIR     N/A N/A N/A CALM      30.06R
CHASE CITY*    FAIR      67  67 100 CALM      30.07R
CLARKSVILLE*   FAIR      66  66 100 CALM      30.06R
SOUTH HILL*    CLEAR     68  68 100 CALM      30.11R
LAWRENCEVILLE* FAIR      68  67  97 CALM      30.05R
EMPORIA*       CLEAR     64  64 100 CALM      30.05R FOG
$$

VAZ088>098-201200-
SOUTHEAST VIRGINIA

CITY           SKY/WX    TMP DP  RH WIND       PRES   REMARKS
NORFOLK        CLEAR     75  74  96 S3        30.03R
VIRGINIA BEACH MOCLDY    72  69  90 CALM      30.02R
NORFOLK NAVAL  PTCLDY    74  72  93 CALM      30.04R FOG
WEST POINT*    CLEAR     69  68  98 CALM      30.06R
SALUDA*        FAIR      71  71 100 CALM      30.04R
NEWPORT NEWS   CLEAR     69  68  96 CALM      30.04R FOG
LANGLEY AFB    CLEAR     73  73 100 N6        30.03R FOG
FORT EUSTIS    CLEAR     73  71  95 CALM      30.01R
WILLIAMSBURG*  CLEAR     73  73 100 CALM      30.05R
HR EXEC AP*    FAIR      66  63  88 CALM      30.01S
FRANKLIN*      PTCLDY    68  67  96 CALM      30.04R
US460-WAKEFLD  CLEAR     69  69 100 CALM      30.04R FOG
$$

VAZ020-022-025-037-045-201200-
WEST CENTRAL AND SOUTHWEST VIRGINIA

CITY           SKY/WX    TMP DP  RH WIND       PRES   REMARKS
STAUNTON*      CLEAR     60  59  97 CALM      30.14R FOG
WAYNESBORO*    MOSUNNY   61  61 100 SW3       30.13R
HOT SPRINGS VA CLEAR     63  63 100 CALM      30.24R
LYNCHBURG      CLEAR     63  63 100 CALM      30.10R
DANVILLE       CLEAR     65  65 100 CALM      30.08R FOG
SOUTH BOSTON*  FAIR      65  64  95 CALM      30.07R
MARTINSVILLE   CLEAR     62  62  98 CALM      30.13R
ROANOKE        CLEAR     67  64  90 CALM      30.13R
BLACKSBURG     CLEAR     62  62 100 CALM      30.20R FOG
DUBLIN*        CLEAR     63  63 100 CALM      30.18R FOG
MARION*        CLEAR     60  52  72 CALM      30.22R HAZE
HILLSVILLE*    CLEAR     61  57  86 CALM      30.19R
RICHLANDS*     FAIR      66  59  80 CALM      30.20R
WISE*          CLEAR     64  64 100 CALM      30.20S
ABINGDON*      CLEAR     65  65 100 CALM      30.17R
$$

MDZ021>025-VAZ099-100-201200-
SOUTHERN MARYLAND AND THE DELMARVA PENINSULA

CITY           SKY/WX    TMP DP  RH WIND       PRES   REMARKS
PATUXENT RIVER CLEAR     72  67  84 NW8       30.06R
BAY BRIDGE APT CLEAR     72  66  83 N3        30.06R
LEONARDTOWN    CLEAR     68  63  83 CALM      30.08R
DOVER          PTCLDY    68  63  83 NW7       30.04R
GEORGETOWN     CLEAR     71  64  78 NW3       30.07R
EASTON         NOT AVBL
CAMBRIDGE      CLEAR     68  68 100 CALM      30.06R
SALISBURY      CLEAR     70  68  93 CALM      30.05R
OCEAN CITY     CLEAR     70  67  90 NW7       30.05R
WALLOPS ISLAND CLEAR     73  69  87 N5        30.05R
ACCOMACK*      CLEAR     71  71  99 CALM      30.04R FOG
$$

NCZ012>017-030>032-201200-
NORTH CENTRAL AND EASTERN NORTH CAROLINA

CITY           SKY/WX    TMP DP  RH WIND       PRES   REMARKS
ROANOKE RAPIDS FAIR      66  66 100 CALM      30.04R FOG
RALEIGH        PTCLDY    71  70  96 CALM      30.06R
ELIZABETH CITY FOG       73  73 100 CALM      30.04R VSB 3/4
AHOSKIE*       FOG       69  69  99 CALM      30.04R VSB 1/4
EDENTON*       CLEAR     75  73  95 CALM      30.04R
CURRITUCK*     CLEAR     73  72  97 CALM      30.04R
KILL DEVIL HLS CLEAR     76  76  99 CALM      30.02R
MANTEO         CLEAR     75  74  95 CALM      30.03R
CAPE HATTERAS  MOCLDY    79  77  94 SW3       30.05R
TARBORO*       NOT AVBL
GOLDSBORO      CLEAR     72  72 100 VRB2      30.04R
WASHINGTON     FOG       71  70  98 CALM      30.05R VSB<1/4
GREENVILLE     FOG       70  70 100 CALM      30.06R VSB 1/4
NEW BERN       CLOUDY    76  76 100 CALM      30.07R FOG
WILMINGTON     CLOUDY    76  75  97 CALM      30.04R
$$

VAZ048-201200-
ELSEWHERE

CITY           SKY/WX    TMP DP  RH WIND       PRES   REMARKS
HARRISBURG PA  PTCLDY    67  61  81 W8        30.08R
BALTIMORE      PTCLDY    66  62  87 NW7       30.07R
ANNAPOLIS      PTCLDY    74  66  76 N8        30.06R
ANDREWS AFB    CLEAR     65  61  86 N3        30.07R
PHILADELPHIA   PTCLDY    69  60  73 NW7       30.05R
HENDERSON NC   CLEAR     65  64  96 CALM      30.06R
GREENSBORO     PTCLDY    69  68  96 NW5       30.09R
ROCKY MOUNT    FOG       70  70 100 CALM      30.05R VSB 3/4
$$

VAZ100-201200-
MARINE

STATION/POSITION TIME  TEMP    WIND        PRES    WAVE   SWELL
                       AIR SEA DIR/SP/G            HT/PER HT/PER
                 (UTC) (F)     (DEG/KT/KT) (MB)    (FT/S) (FT/S)
BRANDYWINE LGT   1048   74     330/  8/ 13 1017.8R
CAPE MAY NJ      1042   75 78  330/  2/ 10 1016.7R
LEWES DE         1048   74 77  330/ 11/ 12 1017.4R
15NM E FENWICK I 1050   76 78  320/ 12/ 14 1017.4R   2/ 6   2/ 6
OCEAN-CITY-INLET 1048   75 76  350/  9/ 11 1017.7R
WACHAPREAGUE VA  1048   74 82  340/  1/  2 1017.1R
THOMAS POINT MD  1100   73 80  320/  6/  7   N/A
GOOSES REEF MD   1100   77 80   30/ 14/ 16 1018.6    1/ 2
COVE POINT MD    1048   76     360/ 12/ 16 1018.4R
SOLOMONS ISLAND  1048   73 82  340/  7/  9   N/A
BISHOPS HEAD MD  1048   74 83  350/  4/  5 1017.7R
PINEY POINT MD   1036           20/ 10/ 12   N/A
POTOMAC MD       1100   77 82  350/  8/  8 1017.0    0
CAMBRIDGE MD     1048   73 82              1018.6R
LEWISETTA VA     1048   78 83   10/  8/ 13 1017.5R
RAPPAHANNOCK LGT 1036          330/  5/  6 1017.6R
STINGRAY PT      1100   79 82  360/  8/  8 1017.5    0
YORK RVR RNG VA  1048   78     360/  8/ 10 1017.4R
YORKTOWN VA      1048   75 82  360/  8/  9 1016.9R
JAMESTOWN VA     1100      84   30/  6/  8   N/A     0
DOMINION TERM VA 1036   78     280/  3/  4 1016.8R
KIPTOPEKE VA     1036      80  280/  2/  3   N/A
CHES BAY BRIDGE  1036   78 80  250/  3/  4 1016.6R
CAPE HENRY VA    1036   75     260/  4/  5   N/A
WILLOUBY STN VA  1036   78     250/  6/  6 1016.7R
S CRANEY ISL VA  1036   76     220/  2/  3 1016.6R
CAPE HENRY BUOY  1100      80                N/A     2/ 8
1ST LANDING BUOY 1100   78 80              1016.7    1/ 4
64NM E OF VA BCH 1050   78 78  300/  2/  2 1017.1R   2/ 6   2/ 6
DUCK PIER NC     1036   78 72  300/  5/  7 1016.3R
44100 DUCK FRF   1035      80                N/A     2/ 9
44056 DUCK FRF   1100      77                N/A     2/ 8
OREGON INLET NC  1036   77 81  270/  4/  6 1016.6R
HATTERAS NC      1036   80 80  270/  6/  9 1017.3R
DIAMOND SHLS NC  1050   79 82  290/ 12/ 14 1017.0R   3/ 9   3/ 9
CAPE LOOKOUT NC  1100   78     280/ 11/ 13 1017.7R
$$



USA.gov is the U.S. government's official web portal to all federal, state and local government web resources and services.